Regional Weather Roundup
Issued by NWS

Home | Current Version | Previous Version | Graphics & Text | Print | Product List | Glossary On
Versions: 1 2 3 4 5 6 7 8 9 10 11 12 13 14 15 16 17 18 19 20 21 22 23 24 25 26 27 28 29 30 31 32 33 34 35 36 37 38 39 40 41 42 43 44 45 46 47 48 49 50
000
ASUS43 KDTX 121410
RWRMI
MICHIGAN HOURLY REGIONAL WEATHER ROUNDUP
NATIONAL WEATHER SERVICE DETROIT/PONTIAC MI
900 AM EST FRI FEB 12 2016

NOTE: "FAIR" INDICATES FEW OR NO CLOUDS BELOW 12,000 FEET WITH NO
SIGNIFICANT WEATHER AND/OR OBSTRUCTION TO VISIBILITY.

MIZ047>049-052>055-059>063-066>070-074>076-081>083-121500-
SOUTHEAST LOWER MICHIGAN

CITY           SKY/WX    TMP DP  RH WIND       PRES   REMARKS
ADRIAN         CLOUDY    17   9  70 W9        30.08F WCI   6
ALMA           CLOUDY    21  12  69 W8        30.01S WCI  11
ANN ARBOR      CLOUDY    17   9  70 SW9       30.05F WCI   6
BAD AXE        CLOUDY    17  10  76 W10       29.97S WCI   4
CARO           CLOUDY    16   9  73 SW9       29.98F WCI   4
DETROIT CITY   CLOUDY    18   8  65 SW15      30.05F WCI   4
DETROIT        CLOUDY    18   9  68 S13       30.08F WCI   5
FLINT          CLOUDY    18   8  65 SW8       30.01F WCI   8
GROSSE ILE     CLOUDY    19   9  63 SW8       30.07F WCI   9
HILLSDALE      CLOUDY    17   6  63 SW12      30.03F WCI   4
HOWELL         CLOUDY    18  10  73 SW8       30.01F WCI   7

CITY           SKY/WX    TMP DP  RH WIND       PRES   REMARKS
JACKSON        CLOUDY    18   8  65 SW13      30.03F WCI   5
LAMBERTVILLE   CLOUDY    18   9  68 SW6       30.10F WCI  10
LANSING        FLURRIES  19  10  68 SW15      30.02F WCI   5
LAPEER         CLOUDY    15  10  77 SW8       30.00F WCI   5
MASON          CLOUDY    18  10  70 W6        30.02F WCI  10
MONROE         CLOUDY    19   9  66 SW10      30.08F WCI   7
MT. CLEMENS    CLOUDY    18   9  67 SW13      30.02F WCI   5
PONTIAC        CLOUDY    16   7  67 SW6       30.00F WCI   7
PORT HOPE        N/A     15  10  80 W8        29.94F WCI   4
PORT HURON     CLOUDY    16   9  73 SW9       30.02F WCI   4
TRI CITIES     LGT SNOW  21  11  65 W16       30.00S WCI   7
MIDLAND        CLOUDY    20   9  62 W9G16     29.99F WCI   9
TROY           CLOUDY    18  10  70 SW7       30.05F WCI   9
SAGINAW HB     CLOUDY    19  14  79 SW9       30.00S WCI   9
$$
MIZ043>046-050>051-056>058-064>065-071>073-077>080-121500-
SOUTHWEST LOWER MICHIGAN

CITY           SKY/WX    TMP DP  RH WIND       PRES   REMARKS
BATTLE CREEK   CLOUDY    18   9  68 SW13      30.04F WCI   5
BENTON HARBOR  CLOUDY    23  12  62 W15G23    30.09F WCI  10
BIG RAPIDS     CLOUDY    18  11  72 W9G17     29.97F WCI   7
COLDWATER      CLOUDY    18   9  67 SW12      30.06F WCI   6
FREMONT        CLOUDY    19  10  67 NW10      30.02S WCI   8
HOLLAND        LGT SNOW  21  14  74 W14G23    30.06S WCI   8
GRAND RAPIDS   LGT SNOW  21  13  71 NW12      30.02F WCI   9
IONIA          CLOUDY    19  12  73 SW10      30.00S WCI   8
KALAMAZOO      FLURRIES  18   9  68 SW8       30.06S WCI   8
LUDINGTON      CLOUDY    18   6  60 NW12G20   30.04S WCI   5
MARSHALL       CLOUDY    19   9  67 SW12      30.03F WCI   6
MOUNT PLEASANT CLOUDY    20  11  66 W9        29.98F WCI   9
MUSKEGON       FLURRIES  22  11  62 NW14G22   30.05S WCI   9
SOUTH HAVEN    CLOUDY    23  13  65 W12G21    30.07S WCI  12
$$
MIZ016>042-121500-
NORTHERN LOWER MICHIGAN

CITY           SKY/WX    TMP DP  RH WIND       PRES   REMARKS
ALPENA         LGT SNOW  15  10  80 W9        29.90F WCI   3
BEAVER ISLAND  PTSUNNY   16   9  74 NW17G26   29.93S WCI   0
BELLAIRE       LGT SNOW  18   9  67 W10G21    29.96S WCI   6
CADILLAC       LGT SNOW  15   9  76 W10       29.92S WCI   2
CHARLEVOIX     CLOUDY    18   6  60 W23       29.96F HAZE    WCI   0
FRANKFORT      CLOUDY    18   7  62 NW13G24   30.01S WCI   4
GAYLORD        SNOW      14   9  80 W13G21    29.87S VSB 1/2 WCI   0
GRAYLING       LGT SNOW  15  10  82 W10       29.90F WCI   2
HARBOR SPRINGS CLOUDY    17   6  62 W16G24    29.91S WCI   1
HOUGHTON LAKE  LGT SNOW  14   8  77 W12       29.92F WCI   0
MANISTEE       CLOUDY    18   3  53 NW15G23   30.02S WCI   3
OSCODA         MOSUNNY   15   8  73 SW13      29.93F WCI   1
PELLSTON       MOSUNNY   16   6  65 W18G25    29.90F WCI   0
ROGERS CITY    PTSUNNY   15   7  72 W9        29.90S WCI   3
TRAVERSE CITY  LGT SNOW  17   8  67 W17       29.97S WCI   1
$$
MIZ007>008-015-121500-
EASTERN UPPER MICHIGAN

CITY           SKY/WX    TMP DP  RH WIND       PRES   REMARKS
KINROSS        CLOUDY     9   7  92 NE7       29.87S WCI  -3
MACKINAC ISLAN PTSUNNY   14   9  80 W22G31    29.87S WCI  -4
NEWBERRY       LGT SNOW  11   8  89 W12       29.88R VSB 1   WCI  -4
S. S. MARIE    LGT SNOW  10   3  73 NE5       29.88R WCI   2
MUNISING         N/A     14   5  67 NW21G30   29.95R WCI  -4
$$
MIZ004>006-011>014-085-121500-
CENTRAL UPPER MICHIGAN

CITY           SKY/WX    TMP DP  RH WIND       PRES   REMARKS
MANISTIQUE     MOCLDY     9   3  77 W12G18    29.95S WCI  -6
ESCANABA       CLEAR      9   1  72 W12       30.01S WCI  -6
MENOMINEE      CLEAR     10   0  61 W9        30.05S WCI  -2
SAWYER-GWINN   SNOW       1   0  92 NW8       29.94S VSB 1/2 WCI -12
$$
MIZ001>003-009>011-084-121500-
WESTERN UPPER MICHIGAN

CITY           SKY/WX    TMP DP  RH WIND       PRES   REMARKS
IRON MOUNTAIN  MOCLDY     9   0  67 W13       29.98R HAZE    WCI  -7
HOUGHTON       HAZE       5   0  79 N23G29    30.02R VSB 1/2 WCI -17
COPPER HARBOR    N/A      8   5  87 NE33G47   30.05R WCI -16
IRONWOOD       CLOUDY     5   1  85 NW17G24   30.08R VSB 1/2 WCI -14
$$

ABBREVIATIONS USED IN REMARKS
   TC - TEMPERATURE IN CELSIUS
  WCI - WIND CHILL INDEX
   HX - HEAT INDEX
  VSB - VISIBILITY




USA.gov is the U.S. government's official web portal to all federal, state and local government web resources and services.